Bennington, VT

6:07 PM EDT on April 23, 2017 (GMT -0400)
Morse State

Weather History for KDDH - December, 2013

Change the Weather History Date:

Friday, December 13, 2013

  Actual Average Record
Temperature  
Mean Temperature 17 °F 29 °F  
Max Temperature 24 °F 36 °F 53 °F (2015)
Min Temperature 9 °F 21 °F -2 °F (2005)
Degree Days  
Heating Degree Days 48 36  
Month to date heating degree days 450 442  
Since 1 July heating degree days 1981 2055  
Cooling Degree Days 0 0  
Month to date cooling degree days 0 0  
Year to date cooling degree days 503 313  
Moisture  
Dew Point 10 °F    
Average Humidity 59    
Maximum Humidity 68    
Minimum Humidity 49    
Precipitation  
Precipitation T in 0.09 in 0.41 in (2007)
Month to date precipitation 0.38 1.25  
Year to date precipitation 42.28 39.16  
Sea Level Pressure  
Sea Level Pressure 30.06 in    
Wind  
Wind Speed 6 mph (West)    
Max Wind Speed 17 mph    
Max Gust Speed 23 mph    
Visibility 7 miles    
Events Snow    
T = Trace of Precipitation, MM = Missing Value Source: NWS Daily Summary

Daily Weather History Graph

Daily Weather History Graph

Search for Another Location

Airport or City:

Trip Planner

Search our weather history database for the weather conditions in past years. The results will help you decide how hot, cold, wet, or windy it might be!

Date:

Astronomy

Dec. 13, 2013 Rise Set
Actual Time 7:15 AM EST 4:19 PM EST
Civil Twilight 6:43 AM EST 4:51 PM EST
Nautical Twilight 6:07 AM EST 5:26 PM EST
Astronomical Twilight 5:33 AM EST 6:01 PM EST
Moon 2:03 PM EST (12/13) 3:31 AM EST (12/13)
Length of Visible Light 10h 07m
Length of Day
9h 03m
Waxing Gibbous, 88% of the Moon is Illuminated
Dec 13
Waxing Gibbous
Dec 17
Full
Dec 25
Last Quarter
Jan 1
New
Jan 7
First Quarter

Hourly Weather History & Observations

Time (EST) Temp. Windchill Dew Point Humidity Pressure Visibility Wind Dir Wind Speed Gust Speed Precip Events Conditions
12:54 AM 17.1 °F 10.0 °F 3.0 °F 54% 30.00 in 10.0 mi SW 4.6 mph - N/A   Mostly Cloudy
1:54 AM 16.0 °F 7.4 °F 3.0 °F 57% 29.99 in 10.0 mi SW 5.8 mph - N/A   Overcast
2:54 AM 16.0 °F 8.8 °F 3.9 °F 59% 29.98 in 10.0 mi SSW 4.6 mph - N/A   Mostly Cloudy
3:54 AM 16.0 °F 8.8 °F 3.9 °F 59% 29.97 in 10.0 mi SSW 4.6 mph - N/A   Mostly Cloudy
4:54 AM 17.1 °F 11.7 °F 5.0 °F 59% 29.96 in 10.0 mi SSW 3.5 mph - N/A   Scattered Clouds
5:54 AM 18.0 °F 11.1 °F 6.1 °F 60% 29.96 in 10.0 mi South 4.6 mph - N/A   Overcast
6:54 AM 21.0 °F - 7.0 °F 55% 29.97 in 10.0 mi Calm Calm - N/A   Overcast
7:54 AM 21.9 °F 12.5 °F 8.1 °F 55% 29.99 in 10.0 mi West 8.1 mph - N/A   Overcast
8:54 AM 21.9 °F 15.7 °F 10.0 °F 60% 30.02 in 10.0 mi Variable 4.6 mph 17.3 mph N/A   Overcast
9:31 AM 21.2 °F 13.6 °F 10.4 °F 63% 29.99 in 10.0 mi WNW 5.8 mph - N/A   Overcast
9:54 AM 21.9 °F 12.5 °F 12.0 °F 66% 30.04 in 9.0 mi WNW 8.1 mph - N/A   Overcast
10:08 AM 21.2 °F 13.6 °F 12.2 °F 68% 30.00 in 7.0 mi WNW 5.8 mph - N/A   Overcast
10:30 AM 21.2 °F 13.6 °F 12.2 °F 68% 30.00 in 2.5 mi West 5.8 mph - 0.00 in Snow Light Snow
10:41 AM 21.2 °F 16.4 °F 14.0 °F 74% 29.99 in 1.8 mi Variable 3.5 mph - 0.00 in Snow Light Snow
10:54 AM 21.9 °F 13.4 °F 14.0 °F 72% 30.04 in 2.0 mi West 6.9 mph - 0.00 in Snow Light Snow
11:06 AM 21.2 °F 16.4 °F 14.0 °F 74% 29.99 in 5.0 mi Variable 3.5 mph - 0.00 in Snow Light Snow
11:19 AM 23.0 °F 14.7 °F 14.0 °F 68% 29.99 in 6.0 mi WNW 6.9 mph - 0.00 in   Haze
11:38 AM 23.0 °F 17.0 °F 15.8 °F 74% 29.99 in 2.0 mi Variable 4.6 mph - 0.00 in Snow Light Snow
11:43 AM 23.0 °F 18.4 °F 14.0 °F 68% 29.98 in 3.0 mi West 3.5 mph - 0.00 in Snow Light Snow
11:54 AM 23.0 °F 12.4 °F 14.0 °F 68% 30.03 in 7.0 mi West 10.4 mph 21.9 mph 0.00 in Snow Light Snow
12:23 PM 23.0 °F 13.9 °F 14.0 °F 68% 29.99 in 2.5 mi West 8.1 mph - 0.00 in Snow Light Snow
12:31 PM 23.0 °F 13.1 °F 15.8 °F 74% 29.99 in 0.8 mi West 9.2 mph - 0.00 in Snow Light Snow
12:54 PM 23.0 °F 14.7 °F 16.0 °F 74% 30.04 in 0.8 mi WNW 6.9 mph 16.1 mph 0.00 in Snow Light Snow
1:03 PM 23.0 °F 13.9 °F 15.8 °F 74% 30.00 in 1.5 mi West 8.1 mph - 0.00 in Snow Light Snow
1:09 PM 23.0 °F 13.9 °F 15.8 °F 74% 30.00 in 3.0 mi West 8.1 mph - 0.00 in Snow Light Snow
1:16 PM 23.0 °F 15.8 °F 15.8 °F 74% 30.01 in 6.0 mi WNW 5.8 mph - 0.00 in   Haze
1:45 PM 23.0 °F 14.7 °F 15.8 °F 74% 30.01 in 2.5 mi WNW 6.9 mph - 0.00 in Snow Light Snow
1:52 PM 23.0 °F 14.7 °F 15.8 °F 74% 30.02 in 1.0 mi NNW 6.9 mph - 0.00 in Snow Light Snow
1:54 PM 23.0 °F 13.9 °F 16.0 °F 74% 30.06 in 1.0 mi NNW 8.1 mph - 0.00 in Snow Light Snow
2:03 PM 23.0 °F 17.0 °F 15.8 °F 74% 30.02 in 2.5 mi WNW 4.6 mph - 0.00 in Snow Light Snow
2:12 PM 23.0 °F 18.4 °F 15.8 °F 74% 30.02 in 7.0 mi Variable 3.5 mph - 0.00 in Snow Light Snow
2:20 PM 24.8 °F 15.3 °F 12.2 °F 59% 30.03 in 10.0 mi WNW 9.2 mph - 0.00 in   Overcast
2:54 PM 21.9 °F 12.5 °F 14.0 °F 72% 30.09 in 10.0 mi North 8.1 mph - 0.00 in   Overcast
3:54 PM 21.9 °F 15.7 °F 12.0 °F 66% 30.14 in 10.0 mi NW 4.6 mph - N/A   Overcast
4:54 PM 19.9 °F 12.1 °F 9.0 °F 62% 30.17 in 10.0 mi Variable 5.8 mph - N/A   Overcast
5:54 PM 19.9 °F 10.1 °F 5.0 °F 52% 30.21 in 10.0 mi West 8.1 mph 17.3 mph N/A   Overcast
6:54 PM 18.0 °F 8.7 °F 3.0 °F 52% 30.25 in 10.0 mi Variable 6.9 mph - N/A   Mostly Cloudy
7:54 PM 16.0 °F 7.4 °F 1.0 °F 52% 30.29 in 10.0 mi NW 5.8 mph - N/A   Clear
8:54 PM 14.0 °F 8.2 °F -2.9 °F 47% 30.31 in 10.0 mi Variable 3.5 mph - N/A   Clear
9:54 PM 10.9 °F 4.7 °F -0.9 °F 59% 30.33 in 10.0 mi NW 3.5 mph - N/A   Clear
10:54 PM 9.0 °F 2.4 °F -2.0 °F 61% 30.37 in 10.0 mi WNW 3.5 mph - N/A   Overcast
11:54 PM 10.0 °F 3.6 °F -2.0 °F 58% 30.40 in 10.0 mi West 3.5 mph - N/A   Overcast